Weather History for KLWT - June, 2011

Change the Weather History Date:

Saturday, June 18, 2011

  Actual Average Record
Temperature  
Mean Temperature 56 °F 59 °F  
Max Temperature 67 °F 72 °F 93 °F (1900)
Min Temperature 45 °F 46 °F 28 °F (1949)
Degree Days  
Heating Degree Days 9 7  
Month to date heating degree days 224 159  
Since 1 June heating degree days 224 159  
Since 1 July heating degree days 8960 8133  
Cooling Degree Days 0 1  
Month to date cooling degree days 0 4  
Year to date cooling degree days 0 6  
Since 1 June cooling degree days 0 4  
Growing Degree Days 6 (Base 50)    
Moisture  
Dew Point 42 °F    
Average Humidity 65    
Maximum Humidity 89    
Minimum Humidity 40    
Precipitation  
Precipitation 0.06 in 0.10 in 0.72 in (1928)
Month to date precipitation 3.60 2.01  
Year to date precipitation 15.98 8.27  
Snow  
Snow 0.00 in - - ()
Snow Depth 0.00 in    
Sea Level Pressure  
Sea Level Pressure 29.71 in    
Wind  
Wind Speed 10 mph (West)    
Max Wind Speed 21 mph    
Max Gust Speed 24 mph    
T = Trace of Precipitation, MM = Missing Value Source: NWS Daily Summary

Daily Weather History Graph

Daily Weather History Graph

Search for Another Location

Airport or City:

Trip Planner

Search our weather history database for the weather conditions in past years. The results will help you decide how hot, cold, wet, or windy it might be!

Date:

Astronomy

Jun. 18, 2011 Rise Set
Actual Time 5:22 AM MDT 9:16 PM MDT
Civil Twilight 4:42 AM MDT 9:55 PM MDT
Nautical Twilight 3:47 AM MDT 10:50 PM MDT
Astronomical Twilight 2:24 AM MDT 12:13 AM MDT
Moon 11:17 PM MDT (6/18) 8:28 AM MDT (6/18)
Length of Visible Light 17h 13m
Length of Day
15h 53m
Waning Gibbous, 90% of the Moon is Illuminated
Jun 18
Waning Gibbous
Jun 23
Last Quarter
Jul 1
New
Jul 8
First Quarter
Jul 15
Full

Hourly Weather History & Observations

Time (MDT) Temp. Windchill Dew Point Humidity Pressure Visibility Wind Dir Wind Speed Gust Speed Precip Events Conditions
12:54 AM 48.0 °F - 39.0 °F 71% 29.78 in - WSW 13.8 mph - N/A   Clear
1:54 AM 46.0 °F 40.2 °F 39.0 °F 76% 29.80 in - SSW 12.7 mph - N/A   Clear
2:54 AM 46.0 °F 40.2 °F 37.9 °F 73% 29.79 in - SW 12.7 mph - N/A   Clear
3:54 AM 45.0 °F 39.3 °F 37.9 °F 76% 29.78 in - SW 11.5 mph - N/A   Clear
4:54 AM 46.0 °F 40.2 °F 37.9 °F 73% 29.76 in - SW 12.7 mph - N/A   Clear
5:54 AM 46.9 °F - 39.0 °F 74% 29.75 in - SW 11.5 mph - N/A   Clear
6:54 AM 52.0 °F - 41.0 °F 66% 29.74 in - WSW 13.8 mph - N/A   Overcast
7:54 AM 54.0 °F - 42.1 °F 64% 29.73 in - WSW 16.1 mph - N/A   Clear
9:54 AM 60.1 °F - 39.0 °F 46% 29.70 in - West 16.1 mph 24.2 mph N/A   Clear
10:54 AM 61.0 °F - 41.0 °F 48% 29.70 in - West 15.0 mph - N/A   Mostly Cloudy
11:54 AM 61.0 °F - 41.0 °F 48% 29.68 in - WSW 16.1 mph - N/A   Overcast
12:54 PM 64.9 °F - 39.9 °F 40% 29.67 in - West 11.5 mph - N/A   Scattered Clouds
1:54 PM 66.0 °F - 41.0 °F 40% 29.66 in - West 8.1 mph - N/A   Mostly Cloudy
2:54 PM 63.0 °F - 43.0 °F 48% 29.68 in - NW 18.4 mph 24.2 mph 0.00 in   Scattered Clouds
3:54 PM 63.0 °F - 45.0 °F 52% 29.68 in - NNW 9.2 mph 16.1 mph 0.00 in   Clear
4:54 PM 63.0 °F - 41.0 °F 45% 29.66 in - NW 4.6 mph - N/A   Scattered Clouds
5:54 PM 61.0 °F - 46.9 °F 60% 29.66 in - Calm Calm - 0.06 in Rain Heavy Rain
6:54 PM 62.1 °F - 46.9 °F 58% 29.65 in - North 8.1 mph - 0.00 in   Clear
8:54 PM 57.0 °F - 46.0 °F 67% 29.65 in - Calm Calm - N/A   Mostly Cloudy
9:54 PM 52.0 °F - 48.9 °F 89% 29.65 in - East 5.8 mph - N/A   Overcast
11:54 PM 50.0 °F - 46.0 °F 86% 29.67 in - North 4.6 mph - N/A   Scattered Clouds